• Join FlightAware (Why Join?)
  • Login
  • US Flag 
Rudolph Flight #1: Scheduled 
08:59PM EST


 

Airport Tracker/Info


-or-


 

Live Flight TrackerFlight Track Log ✈ UAL623 ✈ 12-May-2013 ✈ KIAH - KBOS

Flight Track Log - Related Links

Times and Time Zones

All times are in EDT time to prevent confusion due to time zone crossing. See the UAL623 flight status page for this flight to view local times or setup timezone preferences in your user account.

Time Position Orientation Groundspeed Altitude Reporting Facility
EDT Latitude Longitude Course Direction KTS MPH feet Rate Location/Type
07:10PM 29.9772 -95.3056 35° Northeast 187 215 600  Level Houston Center
07:11PM 30.0286 -95.2703 31° Northeast 227 261 3,200 2,100 Climbing Houston Center
07:12PM 30.0531 -95.2631 14° North 234 269 3,900 1,140 Climbing Houston Center
07:12PM 30.0925 -95.2578 North 271 312 4,300 2,340 Climbing Houston Center
07:13PM 30.1692 -95.2483 North 263 303 7,700 3,000 Climbing Houston Center
07:14PM 30.4158 -94.9842 41° Northeast  Level FlightAware Approximate
07:14PM 30.1956 -95.2333 26° Northeast 270 311 9,100  Level Houston Center
07:15PM 30.5256 -94.8997 30° Northeast  Level FlightAware Approximate
07:15PM 30.2569 -95.1692 42° Northeast 300 345 11,200  Level Houston Center
07:16PM 30.6356 -94.8149 35° Northeast  Level FlightAware Approximate
07:16PM 30.3283 -95.0919 43° Northeast 347 399 13,600  Level Houston Center
07:17PM 30.4061 -95.0083 43° Northeast 377 434 16,400 2,520 Climbing Houston Center
07:18PM 30.5161 -94.9219 34° Northeast 392 451 18,800 2,220 Climbing Houston Center
07:19PM 30.6128 -94.8464 34° Northeast 411 473 21,000 1,800 Climbing Houston Center
07:20PM 30.7150 -94.7681 33° Northeast 442 509 22,600 1,620 Climbing Houston Center
07:21PM 30.8214 -94.6853 34° Northeast 453 521 24,400 1,740 Climbing Houston Center
07:22PM 30.9303 -94.6011 34° Northeast 466 536 26,300 1,740 Climbing Houston Center
07:23PM 31.0639 -94.4964 34° Northeast 484 557 28,000 1,440 Climbing Houston Center
07:24PM 31.1800 -94.4075 33° Northeast 501 577 29,300 1,260 Climbing Houston Center
07:25PM 31.2989 -94.3147 34° Northeast 516 594 30,600 1,380 Climbing Houston Center
07:26PM 31.4256 -94.2169 33° Northeast 517 595 32,200 1,560 Climbing Fort Worth Center
07:27PM 31.5461 -94.1225 34° Northeast 517 595 33,900 1,380 Climbing Fort Worth Center
07:28PM 31.6650 -94.0331 33° Northeast 517 595 35,000 540 Climbing Fort Worth Center
07:29PM 31.7794 -93.9408 34° Northeast 511 588 35,000  Level Fort Worth Center
07:30PM 31.9019 -93.8433 34° Northeast 516 594 35,000  Level Fort Worth Center
07:31PM 32.0222 -93.7453 35° Northeast 522 601 35,000  Level Fort Worth Center
07:32PM 32.1428 -93.6547 32° Northeast 517 595 35,000  Level Fort Worth Center
07:33PM 32.2606 -93.5514 37° Northeast 523 602 35,000  Level Fort Worth Center
07:34PM 32.3789 -93.4581 34° Northeast 523 602 35,000  Level Fort Worth Center
07:35PM 32.4989 -93.3592 35° Northeast 523 602 35,000  Level Fort Worth Center
07:36PM 32.6169 -93.2650 34° Northeast 518 596 35,000  Level Fort Worth Center
07:37PM 32.7367 -93.1658 35° Northeast 518 596 35,000  Level Fort Worth Center
07:38PM 32.8542 -93.0661 35° Northeast 518 596 35,000  Level Fort Worth Center
07:39PM 32.9369 -92.9211 56° Northeast 511 588 35,000  Level Fort Worth Center
07:40PM 33.0253 -92.7731 55° Northeast 522 601 35,000  Level Fort Worth Center
07:41PM 33.1097 -92.6322 54° Northeast 528 608 35,000  Level Fort Worth Center
07:42PM 33.1939 -92.4836 56° Northeast 533 613 35,000  Level Fort Worth Center
07:43PM 33.2892 -92.3106 57° Northeast 534 615 35,000  Level Memphis Center
07:44PM 33.3622 -92.1803 56° Northeast 535 616 35,000  Level Memphis Center
07:45PM 33.4414 -92.0328 57° Northeast 524 603 35,000  Level Memphis Center
07:46PM 33.5206 -91.8872 57° Northeast 524 603 35,000  Level Memphis Center
07:47PM 33.6017 -91.7414 56° Northeast 519 597 35,000  Level Memphis Center
07:48PM 33.6742 -91.5978 59° Northeast 514 592 35,000  Level Memphis Center
07:49PM 33.7506 -91.4539 57° Northeast 514 592 35,000  Level Memphis Center
07:50PM 33.8311 -91.3075 56° Northeast 519 597 35,000  Level Memphis Center
07:51PM 33.9072 -91.1556 59° Northeast 525 604 35,000  Level Memphis Center
07:52PM 33.9875 -91.0111 56° Northeast 519 597 35,000  Level Memphis Center
07:53PM 34.0653 -90.8586 58° Northeast 527 606 35,000  Level Memphis Center
07:54PM 34.1431 -90.7111 57° Northeast 527 606 35,000  Level Memphis Center
07:55PM 34.2164 -90.5731 57° Northeast 527 606 35,000  Level Memphis Center
07:56PM 34.2936 -90.4250 58° Northeast 521 600 35,000  Level Memphis Center
07:57PM 34.3731 -90.2742 57° Northeast 528 608 35,000  Level Memphis Center
07:58PM 34.4522 -90.1203 58° Northeast 528 608 35,000  Level Memphis Center
07:59PM 34.5289 -89.9664 59° Northeast 528 608 35,000  Level Memphis Center
08:00PM 34.6056 -89.8147 58° Northeast 522 601 35,000  Level Memphis Center
08:01PM 34.6819 -89.6575 59° Northeast 528 608 35,000  Level Memphis Center
08:02PM 34.7625 -89.5053 57° Northeast 533 613 35,000  Level Memphis Center
08:03PM 34.8406 -89.3500 58° Northeast 533 613 35,000  Level Memphis Center
08:04PM 34.9183 -89.1947 59° Northeast 533 613 35,000  Level Memphis Center
08:05PM 34.9961 -89.0389 59° Northeast 539 620 35,000  Level Memphis Center
08:06PM 35.0736 -88.8856 58° Northeast 539 620 35,000  Level Memphis Center
08:07PM 35.1511 -88.7317 58° Northeast 539 620 35,000  Level Memphis Center
08:08PM 35.2281 -88.5728 59° Northeast 539 620 35,000  Level Memphis Center
08:09PM 35.3050 -88.4233 58° Northeast 534 615 35,000  Level Memphis Center
08:10PM 35.3819 -88.2689 59° Northeast 534 615 35,000  Level Memphis Center
08:11PM 35.4664 -88.0958 59° Northeast 534 615 35,000 60 Level Memphis Center
08:12PM 35.5406 -87.9408 60° Northeast 534 615 35,200 900 Climbing Memphis Center
08:13PM 35.6147 -87.7828 60° Northeast 534 615 36,800 900 Climbing Memphis Center
08:14PM 35.6825 -87.6428 59° Northeast 534 615 37,000 60 Climbing Memphis Center
08:15PM 35.7583 -87.4867 59° Northeast 534 615 37,000  Level Memphis Center
08:16PM 35.8317 -87.3281 60° Northeast 534 615 37,000  Level Memphis Center
08:17PM 35.9092 -87.1689 59° Northeast 534 615 37,000  Level Memphis Center
08:18PM 35.9819 -87.0094 61° Northeast 534 615 37,000  Level Memphis Center
08:19PM 36.0547 -86.8525 60° Northeast 534 615 37,000  Level Memphis Center
08:20PM 36.1294 -86.6900 60° Northeast 534 615 37,000  Level Memphis Center
08:21PM 36.1889 -86.5203 66° East 534 615 37,000  Level Memphis Center
08:22PM 36.2439 -86.3478 68° East 528 608 37,000  Level Memphis Center
08:23PM 36.3006 -86.1750 68° East 528 608 37,000  Level Memphis Center
08:25PM 36.4336 -85.7625 68° East 542 624 37,000  Level Indianapolis Center
08:26PM 36.4889 -85.5861 69° East 544 626 37,000  Level Indianapolis Center
08:27PM 36.5433 -85.4108 69° East 542 624 37,000  Level Indianapolis Center
08:28PM 36.5969 -85.2353 69° East 541 623 37,000  Level Indianapolis Center
08:29PM 36.6517 -85.0608 69° East 539 620 37,000  Level Indianapolis Center
08:31PM 36.7047 -84.8869 69° East 535 616 37,000  Level Indianapolis Center
08:32PM 36.7678 -84.6794 69° East 532 612 37,000  Level Indianapolis Center
08:33PM 36.8183 -84.5072 70° East 530 610 37,000  Level Indianapolis Center
08:34PM 36.8703 -84.3369 69° East 526 605 37,000  Level Indianapolis Center
08:35PM 36.9225 -84.1667 69° East 524 603 37,000  Level Indianapolis Center
08:36PM 36.9733 -83.9944 70° East 528 608 37,000  Level Indianapolis Center
08:37PM 37.0258 -83.8211 69° East 534 615 37,000  Level Indianapolis Center
08:38PM 37.0772 -83.6461 70° East 535 616 37,000  Level Indianapolis Center
08:39PM 37.1281 -83.4694 70° East 535 616 37,000  Level Indianapolis Center
08:40PM 37.1786 -83.2931 70° East 533 613 37,000  Level Indianapolis Center
08:41PM 37.2394 -83.0822 70° East 542 624 37,000  Level Indianapolis Center
08:42PM 37.2911 -82.9031 70° East 539 620 37,000  Level Indianapolis Center
08:43PM 37.3417 -82.7261 70° East 535 616 37,000  Level Indianapolis Center
08:44PM 37.3922 -82.5494 70° East 534 615 37,000  Level Indianapolis Center
08:45PM 37.4417 -82.3739 70° East 531 611 37,000  Level Indianapolis Center
08:46PM 37.4908 -82.1978 71° East 531 611 37,000  Level Indianapolis Center
08:47PM 37.5397 -82.0236 70° East 527 606 37,000  Level Indianapolis Center
08:48PM 37.5881 -81.8472 71° East 530 610 37,000  Level Indianapolis Center
08:49PM 37.6344 -81.6700 72° East 531 611 37,000  Level Indianapolis Center
08:50PM 37.6842 -81.4878 71° East 531 611 37,000  Level Indianapolis Center
08:51PM 37.7303 -81.3158 71° East 531 611 37,000  Level Indianapolis Center
08:52PM 37.7714 -81.1458 73° East 510 587 37,000  Level Washington Center
08:53PM 37.7936 -80.9319 82° East 580 667 37,000  Level Washington Center
08:54PM 37.8047 -80.7725 85° East 545 627 37,000  Level Washington Center
08:55PM 37.8158 -80.5628 86° East 535 616 37,000  Level Washington Center
08:56PM 37.8297 -80.3769 85° East 535 616 37,000  Level Washington Center
08:57PM 37.8411 -80.1883 86° East 535 616 37,000  Level Washington Center
08:58PM 37.8522 -80.0025 86° East 535 616 37,000  Level Washington Center
08:59PM 37.8653 -79.8136 85° East 535 616 37,000  Level Washington Center
09:00PM 37.8756 -79.6433 86° East 535 616 37,000  Level Washington Center
09:01PM 37.8858 -79.4544 86° East 535 616 37,000  Level Washington Center
09:02PM 37.8958 -79.2653 86° East 535 616 37,000  Level Washington Center
09:03PM 37.9100 -79.0767 85° East 535 616 37,000  Level Washington Center
09:04PM 37.9297 -78.8906 82° East 535 616 37,000  Level Washington Center
09:05PM 37.9561 -78.6864 81° East 540 621 37,000  Level Washington Center
09:06PM 37.9775 -78.4975 82° East 540 621 37,000  Level Washington Center
09:07PM 37.9986 -78.3111 82° East 540 621 37,000  Level Washington Center
09:08PM 38.0275 -78.1331 78° East 540 621 37,000  Level Washington Center
09:09PM 38.1039 -77.9719 59° Northeast 521 600 37,000  Level Washington Center
09:10PM 38.1775 -77.8264 57° Northeast 521 600 37,000  Level Washington Center
09:11PM 38.2533 -77.6700 58° Northeast 521 600 37,000  Level Washington Center
09:12PM 38.3308 -77.5133 58° Northeast 527 606 37,000  Level Washington Center
09:13PM 38.4106 -77.3511 58° Northeast 527 606 37,000  Level Washington Center
09:14PM 38.4878 -77.1939 58° Northeast 527 606 37,000  Level Washington Center
09:15PM 38.5650 -77.0361 58° Northeast 527 606 37,000  Level Washington Center
09:16PM 38.6417 -76.8756 59° Northeast 527 606 37,000  Level Washington Center
09:17PM 38.7164 -76.7172 59° Northeast 527 606 37,000  Level Washington Center
09:18PM 38.7886 -76.5503 61° Northeast 527 606 37,000  Level Washington Center
09:19PM 38.8586 -76.3886 61° Northeast 527 606 37,000  Level Washington Center
09:20PM 38.9283 -76.2242 61° Northeast 521 600 37,000  Level Washington Center
09:21PM 39.0417 -76.0728 46° Northeast 521 600 37,000  Level Washington Center
09:22PM 39.1442 -75.9422 45° Northeast 516 594 37,000  Level Washington Center
09:23PM 39.2467 -75.8114 45° Northeast 516 594 37,000  Level Washington Center
09:24PM 39.3489 -75.6775 45° Northeast 516 594 37,000  Level Washington Center
09:25PM 39.4511 -75.5458 45° Northeast 511 588 37,000  Level Washington Center
09:26PM 39.5531 -75.4139 45° Northeast 511 588 37,000  Level Washington Center
09:27PM 39.6547 -75.2789 46° Northeast 511 588 37,000  Level Washington Center
09:27PM 39.6981 -75.2228 45° Northeast 511 588 37,000  Level New York Center
09:28PM 39.7864 -75.0878 50° Northeast 540 621 37,000  Level New York Center
09:29PM 39.8875 -74.9425 48° Northeast 545 627 37,000  Level New York Center
09:30PM 40.0033 -74.7922 45° Northeast 538 619 37,000  Level New York Center
09:31PM 40.1000 -74.6458 49° Northeast 525 604 37,000  Level New York Center
09:32PM 40.1769 -74.5253 50° Northeast 525 604 37,000 -720 Level New York Center
09:33PM 40.2800 -74.3594 51° Northeast 537 618 35,600 -1,500 Descending New York Center
09:34PM 40.3717 -74.2144 50° Northeast 537 618 34,100 -1,980 Descending New York Center
09:35PM 40.4614 -74.0717 50° Northeast 520 598 31,700 -2,220 Descending New York Center
09:37PM 40.6311 -73.8103 49° Northeast 519 597 28,000 -2,400 Descending Boston Center
09:38PM 40.7286 -73.6533 51° Northeast 531 611 25,300 -2,040 Descending Boston Center
09:39PM 40.8200 -73.4986 52° Northeast 537 618 24,000 -660 Descending Boston Center
09:40PM 40.9150 -73.3519 49° Northeast 537 618 24,000 -120 Level Boston Center
09:41PM 41.0203 -73.2022 47° Northeast 522 601 23,800 -540 Descending Boston Center
09:42PM 41.0981 -73.0847 49° Northeast 517 595 23,000 -420 Descending Boston Center
09:43PM 41.2114 -72.9092 49° Northeast 512 589 23,000  Level Boston Center
09:44PM 41.2767 -72.7578 60° Northeast 512 589 23,000  Level Boston Center
09:45PM 41.3375 -72.5894 64° Northeast 512 589 23,000  Level Boston Center
09:46PM 41.4000 -72.4208 64° Northeast 507 583 23,000 -120 Level Boston Center
09:47PM 41.4625 -72.2406 65° Northeast 502 578 22,800 -900 Descending Boston Center
09:48PM 41.5244 -72.0714 64° Northeast 496 571 21,300 -2,100 Descending Boston Center
09:49PM 41.5822 -71.9100 64° Northeast 491 565 18,700 -1,920 Descending Boston Center
09:50PM 41.6314 -71.7708 65° Northeast 473 544 17,500 -2,040 Descending Boston Center
09:51PM 41.6786 -71.6397 64° Northeast 442 509 14,700 -2,340 Descending Boston Center
09:52PM 41.7356 -71.4719 65° Northeast 431 496 12,900 -1,560 Descending Boston Center
09:53PM 41.7822 -71.3347 65° Northeast 408 470 11,600 -960 Descending Boston Center
09:54PM 41.8269 -71.2086 65° Northeast 385 443 11,000 -480 Descending Boston Center
09:55PM 41.8692 -71.0908 64° Northeast 360 414 10,700 -720 Descending Boston Center
09:56PM 41.9000 -71.0167 61° Northeast 332 382 9,800 -1,320 Descending KA90
09:57PM 41.9500 -70.9167 56° Northeast 324 373 8,700 -960 Descending KA90
09:58PM 41.9833 -70.8167 66° East 314 361 8,000 -600 Descending KA90
09:58PM 42.0047 -70.7833 49° Northeast 312 359 7,900 -120 Descending Boston Center
09:59PM 42.0617 -70.6922 50° Northeast 312 359 7,900 -240 Level Boston Center
10:00PM 42.1317 -70.6372 30° Northeast 302 348 7,500 -900 Descending Boston Center
10:01PM 42.2050 -70.6492 353° North 259 298 6,100 -1,500 Descending Boston Center
10:02PM 42.2658 -70.6783 340° North 243 280 4,500 -1,560 Descending Boston Center
10:03PM 42.3183 -70.7106 336° Northwest 224 258 3,000 -1,080 Descending Boston Center
10:04PM 42.3669 -70.7542 326° Northwest 211 243 2,400 -540 Descending Boston Center
10:05PM 42.3906 -70.8042 303° West 167 192 2,000 -420 Descending Boston Center